�������l�o���
Date,Time,MP-1(��Sv/h),MP-2(��Sv/h),MP-3(��Sv/h),MP-4(��Sv/h),MP-5(��Sv/h),MP-6(��Sv/h),MP-7(��Sv/h),����,����(m/s),���J
2018/11/02,00:00,0.314,0.192,0.314,0.300,0.282,0.156,0.096,���k��,4.4,��
2018/11/02,00:10,0.315,0.192,0.312,0.300,0.282,0.157,0.096,���k��,2.9,��
2018/11/02,00:20,0.314,0.192,0.313,0.299,0.282,0.156,0.096,�k��,1.7,��
2018/11/02,00:30,0.314,0.193,0.314,0.300,0.283,0.156,0.096,�k�k��,1.2,��
2018/11/02,00:40,0.315,0.192,0.312,0.299,0.282,0.157,0.096,���k��,1.3,��
2018/11/02,00:50,0.315,0.192,0.312,0.300,0.282,0.157,0.096,���k��,1.4,��
2018/11/02,01:00,0.314,0.193,0.313,0.301,0.283,0.156,0.096,�k��,3.0,��
2018/11/02,01:10,0.315,0.192,0.313,0.299,0.283,0.157,0.095,�k�k��,3.2,��
2018/11/02,01:20,0.316,0.193,0.312,0.299,0.281,0.157,0.096,�k��,3.3,��
2018/11/02,01:30,0.316,0.192,0.312,0.301,0.281,0.156,0.095,��,3.1,��
2018/11/02,01:40,0.314,0.194,0.313,0.299,0.282,0.157,0.095,��,4.5,��
2018/11/02,01:50,0.313,0.192,0.313,0.300,0.282,0.157,0.096,��,6.7,��
2018/11/02,02:00,0.315,0.193,0.313,0.300,0.282,0.156,0.095,�k��,4.1,��
2018/11/02,02:10,0.314,0.193,0.312,0.300,0.283,0.157,0.096,�k�k��,2.6,��
2018/11/02,02:20,0.313,0.193,0.314,0.300,0.283,0.157,0.096,���k��,1.9,��
2018/11/02,02:30,0.314,0.192,0.313,0.301,0.282,0.156,0.096,���k��,3.2,��
2018/11/02,02:40,0.314,0.192,0.312,0.299,0.282,0.157,0.096,���k��,5.0,��
2018/11/02,02:50,0.315,0.193,0.313,0.300,0.282,0.156,0.096,���k��,5.3,��
2018/11/02,03:00,0.315,0.192,0.312,0.299,0.282,0.157,0.096,���k��,5.9,��
2018/11/02,03:10,0.316,0.193,0.314,0.298,0.282,0.156,0.096,���k��,5.6,��
2018/11/02,03:20,0.313,0.192,0.313,0.301,0.282,0.156,0.097,���k��,4.6,��
2018/11/02,03:30,0.314,0.193,0.313,0.299,0.281,0.155,0.096,���k��,3.6,��
2018/11/02,03:40,0.315,0.193,0.313,0.297,0.282,0.156,0.095,���k��,2.5,��
2018/11/02,03:50,0.315,0.193,0.312,0.300,0.282,0.156,0.096,���k��,2.9,��
2018/11/02,04:00,0.314,0.193,0.312,0.301,0.282,0.157,0.096,���k��,2.4,��
2018/11/02,04:10,0.314,0.193,0.314,0.298,0.283,0.157,0.096,�k��,2.0,��
2018/11/02,04:20,0.314,0.192,0.312,0.299,0.282,0.157,0.096,�k�k��,2.5,��
2018/11/02,04:30,0.314,0.192,0.312,0.300,0.282,0.157,0.096,�k�k��,2.7,��
2018/11/02,04:40,0.315,0.192,0.313,0.300,0.282,0.156,0.095,�k�k��,2.6,��
2018/11/02,04:50,0.314,0.192,0.312,0.299,0.282,0.157,0.096,�k��,1.1,��
2018/11/02,05:00,0.315,0.192,0.312,0.299,0.280,0.156,0.096,-,CALM,��
2018/11/02,05:10,0.314,0.193,0.313,0.300,0.281,0.157,0.096,-,CALM,��
2018/11/02,05:20,0.315,0.193,0.314,0.299,0.283,0.156,0.095,�k,1.5,��
2018/11/02,05:30,0.316,0.193,0.312,0.298,0.282,0.157,0.095,�k,3.3,��
2018/11/02,05:40,0.315,0.192,0.312,0.299,0.282,0.156,0.096,�k�k��,2.3,��
2018/11/02,05:50,0.313,0.192,0.313,0.300,0.285,0.158,0.096,��,1.1,��
2018/11/02,06:00,0.315,0.193,0.312,0.299,0.282,0.156,0.096,�쐼,2.1,��
2018/11/02,06:10,0.314,0.192,0.313,0.299,0.281,0.157,0.096,���k��,1.8,��
2018/11/02,06:20,0.314,0.192,0.312,0.299,0.282,0.156,0.096,�k��,1.7,��
2018/11/02,06:30,0.313,0.193,0.313,0.298,0.281,0.157,0.096,�k��,1.5,��
2018/11/02,06:40,0.314,0.193,0.315,0.297,0.283,0.156,0.096,�k,1.3,��
2018/11/02,06:50,0.314,0.193,0.314,0.299,0.282,0.157,0.095,�k�k��,2.0,��
2018/11/02,07:00,0.313,0.192,0.312,0.299,0.282,0.157,0.095,�k�k��,2.9,��
2018/11/02,07:10,0.314,0.193,0.313,0.299,0.282,0.156,0.095,���k��,3.3,��
2018/11/02,07:20,0.315,0.193,0.314,0.298,0.283,0.157,0.096,���k��,2.6,��
2018/11/02,07:30,0.314,0.193,0.313,0.298,0.283,0.156,0.095,��,2.6,��
2018/11/02,07:40,0.313,0.192,0.313,0.298,0.281,0.157,0.096,��,2.8,��
2018/11/02,07:50,0.315,0.192,0.313,0.298,0.282,0.157,0.096,���k��,3.0,��
2018/11/02,08:00,0.315,0.193,0.311,0.299,0.282,0.156,0.096,��,3.9,��
2018/11/02,08:10,0.313,0.192,0.312,0.300,0.281,0.156,0.094,��,3.4,��
2018/11/02,08:20,0.314,0.192,0.313,0.299,0.284,0.156,0.096,���k��,1.9,��
2018/11/02,08:30,0.313,0.192,0.311,0.297,0.280,0.156,0.096,���k��,1.9,��
2018/11/02,08:40,0.312,0.192,0.309,0.300,0.284,0.156,0.095,�k��,1.7,��
2018/11/02,08:50,0.314,0.192,0.312,0.297,0.280,0.155,0.095,�k��,0.8,��
2018/11/02,09:00,0.313,0.192,0.311,0.299,0.283,0.156,0.097,-,CALM,��
2018/11/02,09:10,0.313,0.193,0.313,0.298,0.281,0.156,0.095,���k��,0.8,��
2018/11/02,09:20,0.312,0.191,0.311,0.299,0.283,0.156,0.096,�k��,1.4,��
2018/11/02,09:30,0.315,0.192,0.313,0.297,0.281,0.156,0.095,�k�k��,1.0,��
2018/11/02,09:40,0.311,0.191,0.313,0.298,0.284,0.156,0.095,�k�k��,1.1,��
2018/11/02,09:50,0.310,0.192,0.312,0.297,0.279,0.156,0.096,�k��,2.1,��
2018/11/02,10:00,0.312,0.191,0.313,0.297,0.279,0.156,0.096,�k,2.7,��
2018/11/02,10:10,0.313,0.191,0.311,0.301,0.283,0.156,0.096,�k,3.8,��
2018/11/02,10:20,0.311,0.192,0.313,0.295,0.281,0.156,0.095,�k�k��,2.5,��
2018/11/02,10:30,0.313,0.190,0.312,0.297,0.282,0.158,0.095,�k��,2.9,��
2018/11/02,10:40,0.313,0.192,0.311,0.298,0.283,0.155,0.096,�k,3.7,��
2018/11/02,10:50,0.312,0.192,0.312,0.296,0.281,0.156,0.096,�k,4.1,��
2018/11/02,11:00,0.316,0.191,0.312,0.296,0.280,0.157,0.096,�k��,3.4,��
2018/11/02,11:10,0.312,0.193,0.313,0.299,0.283,0.156,0.096,�k��,3.3,��
2018/11/02,11:20,0.314,0.192,0.312,0.298,0.281,0.157,0.095,���k��,3.4,��
2018/11/02,11:30,0.315,0.192,0.313,0.300,0.284,0.156,0.097,�k��,2.8,��
2018/11/02,11:40,0.315,0.193,0.312,0.300,0.284,0.157,0.096,���k��,2.8,��
2018/11/02,11:50,0.315,0.194,0.313,0.299,0.283,0.155,0.096,���k��,3.3,��
2018/11/02,12:00,0.315,0.192,0.313,0.302,0.283,0.156,0.096,�k��,2.1,��
2018/11/02,12:10,0.316,0.193,0.312,0.298,0.281,0.157,0.095,���k��,1.3,��
2018/11/02,12:20,0.314,0.193,0.311,0.301,0.285,0.157,0.096,�k��,1.8,��
2018/11/02,12:30,0.315,0.193,0.311,0.298,0.283,0.157,0.095,�k��,1.6,��
2018/11/02,12:40,0.313,0.193,0.312,0.296,0.280,0.155,0.095,�k��,2.8,��
2018/11/02,12:50,0.315,0.192,0.310,0.300,0.284,0.158,0.095,�k��,2.4,��
2018/11/02,13:00,0.312,0.192,0.312,0.299,0.283,0.157,0.096,�k��,2.3,��
2018/11/02,13:10,0.312,0.193,0.310,0.297,0.280,0.156,0.096,�k�k��,2.7,��
2018/11/02,13:20,0.314,0.191,0.310,0.297,0.281,0.157,0.095,���k��,2.6,��
2018/11/02,13:30,0.314,0.192,0.311,0.300,0.283,0.156,0.095,�k��,1.3,��
2018/11/02,13:40,0.316,0.191,0.311,0.298,0.280,0.157,0.096,���k��,1.3,��
2018/11/02,13:50,0.313,0.190,0.310,0.296,0.280,0.156,0.096,���k��,2.2,��
2018/11/02,14:00,0.315,0.194,0.311,0.300,0.283,0.157,0.096,���k��,2.2,��
2018/11/02,14:10,0.313,0.192,0.312,0.300,0.281,0.157,0.095,��,2.1,��
2018/11/02,14:20,0.315,0.192,0.313,0.301,0.286,0.155,0.096,��,0.8,��
2018/11/02,14:30,0.313,0.193,0.314,0.301,0.283,0.157,0.096,��,1.1,��
2018/11/02,14:40,0.314,0.191,0.313,0.300,0.285,0.155,0.096,��,1.9,��
2018/11/02,14:50,0.314,0.192,0.314,0.300,0.283,0.156,0.096,���k��,1.5,��
2018/11/02,15:00,0.314,0.193,0.313,0.301,0.285,0.157,0.096,���k��,1.0,��
2018/11/02,15:10,0.315,0.193,0.314,0.299,0.282,0.155,0.096,��,0.6,��
2018/11/02,15:20,0.313,0.193,0.311,0.301,0.285,0.156,0.095,-,CALM,��
2018/11/02,15:30,0.316,0.193,0.313,0.300,0.282,0.158,0.096,-,CALM,��
2018/11/02,15:40,0.312,0.193,0.312,0.302,0.284,0.157,0.096,-,CALM,��
2018/11/02,15:50,0.315,0.192,0.311,0.299,0.282,0.157,0.096,�k��,0.8,��
2018/11/02,16:00,0.314,0.193,0.313,0.300,0.284,0.157,0.095,�k,1.2,��
2018/11/02,16:10,0.314,0.192,0.311,0.299,0.282,0.157,0.096,�k�k��,0.6,��
2018/11/02,16:20,0.314,0.192,0.312,0.301,0.283,0.156,0.096,�k,0.6,��
2018/11/02,16:30,0.314,0.193,0.312,0.299,0.283,0.156,0.095,�k�k��,0.9,��
2018/11/02,16:40,0.314,0.193,0.314,0.300,0.282,0.157,0.096,�k,0.7,��
2018/11/02,16:50,0.313,0.193,0.313,0.300,0.283,0.157,0.095,�k,0.8,��
2018/11/02,17:00,0.315,0.193,0.312,0.298,0.282,0.156,0.096,�k�k��,0.7,��
2018/11/02,17:10,0.314,0.193,0.314,0.302,0.285,0.156,0.095,�k,0.8,��
2018/11/02,17:20,0.315,0.192,0.312,0.299,0.282,0.156,0.096,�k,0.9,��
2018/11/02,17:30,0.313,0.193,0.313,0.302,0.285,0.156,0.096,�k��,1.3,��
2018/11/02,17:40,0.315,0.193,0.313,0.301,0.282,0.157,0.095,�k��,1.3,��
2018/11/02,17:50,0.313,0.193,0.313,0.300,0.284,0.156,0.096,�k��,1.3,��
2018/11/02,18:00,0.315,0.193,0.313,0.301,0.282,0.156,0.096,�k,1.0,��
2018/11/02,18:10,0.314,0.192,0.311,0.300,0.283,0.157,0.095,�k,1.2,��
2018/11/02,18:20,0.315,0.192,0.313,0.301,0.282,0.157,0.096,�k�k��,2.2,��
2018/11/02,18:30,0.314,0.193,0.311,0.299,0.283,0.157,0.096,�k,1.7,��
2018/11/02,18:40,0.315,0.193,0.313,0.300,0.285,0.156,0.095,�k,1.8,��
2018/11/02,18:50,0.316,0.191,0.313,0.301,0.282,0.157,0.096,�k,1.3,��
2018/11/02,19:00,0.313,0.193,0.312,0.299,0.285,0.157,0.096,�k,1.3,��
2018/11/02,19:10,0.314,0.192,0.314,0.302,0.283,0.156,0.096,�k�k��,1.0,��
2018/11/02,19:20,0.314,0.194,0.314,0.298,0.284,0.157,0.095,-,CALM,��
2018/11/02,19:30,0.313,0.192,0.312,0.300,0.283,0.157,0.096,-,CALM,��
2018/11/02,19:40,0.316,0.194,0.314,0.301,0.281,0.158,0.096,-,CALM,��
2018/11/02,19:50,0.313,0.195,0.314,0.300,0.286,0.157,0.097,�쐼,0.6,��
2018/11/02,20:00,0.316,0.193,0.313,0.300,0.284,0.158,0.096,���쐼,1.1,��
2018/11/02,20:10,0.316,0.193,0.314,0.303,0.284,0.158,0.097,��,1.2,��
2018/11/02,20:20,0.314,0.193,0.314,0.299,0.283,0.157,0.097,��,0.8,��
2018/11/02,20:30,0.315,0.194,0.314,0.301,0.283,0.158,0.097,�k�k��,0.9,��
2018/11/02,20:40,0.314,0.194,0.314,0.301,0.284,0.157,0.096,�k,1.1,��
2018/11/02,20:50,0.313,0.195,0.313,0.300,0.284,0.157,0.096,�k�k��,1.0,��
2018/11/02,21:00,0.316,0.192,0.314,0.300,0.282,0.158,0.096,�k��,1.0,��
2018/11/02,21:10,0.317,0.193,0.315,0.299,0.283,0.158,0.096,�k��,1.9,��
2018/11/02,21:20,0.314,0.193,0.312,0.300,0.283,0.157,0.097,�k��,2.3,��
2018/11/02,21:30,0.317,0.192,0.312,0.302,0.282,0.157,0.096,�k��,1.8,��
2018/11/02,21:40,0.316,0.192,0.314,0.301,0.285,0.158,0.096,�k��,1.4,��
2018/11/02,21:50,0.313,0.194,0.314,0.300,0.283,0.157,0.096,�k��,1.5,��
2018/11/02,22:00,0.315,0.193,0.312,0.300,0.283,0.157,0.096,�k��,2.0,��
2018/11/02,22:10,0.315,0.193,0.314,0.300,0.283,0.157,0.096,�k��,3.3,��
2018/11/02,22:20,0.315,0.193,0.314,0.299,0.283,0.155,0.096,�k��,4.3,��
2018/11/02,22:30,0.315,0.193,0.313,0.300,0.283,0.157,0.095,�k��,4.3,��
2018/11/02,22:40,0.315,0.192,0.314,0.299,0.283,0.157,0.096,�k��,3.8,��
2018/11/02,22:50,0.314,0.193,0.314,0.300,0.283,0.157,0.096,�k��,3.7,��
2018/11/02,23:00,0.314,0.193,0.313,0.300,0.283,0.157,0.096,�k��,2.7,��
2018/11/02,23:10,0.315,0.194,0.314,0.300,0.282,0.156,0.097,�k��,2.7,��
2018/11/02,23:20,0.315,0.192,0.314,0.300,0.282,0.156,0.096,�k�k��,2.3,��
2018/11/02,23:30,0.314,0.193,0.313,0.300,0.283,0.157,0.096,�k��,2.0,��
2018/11/02,23:40,0.315,0.192,0.314,0.300,0.282,0.156,0.096,�k�k��,2.1,��
2018/11/02,23:50,0.315,0.192,0.315,0.300,0.282,0.157,0.096,�k�k��,2.1,��
